Wind_Speed
16 14 11 12 10 10 9 10 9 12 10 14 13 13 15 15 15 16 16 17 17 18 17 17 17 16 16 16 16 16 16 17 18 18 20 20 19 17 19 21 23 24 20
18 15 12 10 10 9 9 9 9 11 11 12 13 13 14 14 14 14 15 16 16 16 16 16 16 16 15 15 15 15 16 17 14 17 17 18 20 18 17 17 16 18 18
18 19 12 11 10 9 9 9 9 10 10 11 12 13 12 13 13 14 14 15 15 14 14 15 15 15 15 14 13 13 14 15 16 14 13 11 16 17 16 14 16 13 20
16 19 17 12 10 9 9 9 9 9 10 10 11 11 12 12 12 13 13 13 13 13 13 13 14 15 15 13 12 12 13 14 14 16 17 13 14 13 17 12 20 16 14
24 18 15 13 10 10 9 9 9 9 9 9 9 10 10 10 11 12 12 12 12 12 12 12 13 13 14 13 11 12 13 12 13 13 16 15 16 12 13 17 14 16 16
25 19 16 14 12 11 10 9 9 8 7 8 7 8 8 9 10 10 11 11 10 11 11 11 11 12 14 13 11 10 11 11 11 11 9 13 14 15 10 12 12 13 14
21 16 16 14 13 11 10 9 9 7 7 6 6 7 7 8 8 9 9 9 8 9 9 9 9 10 12 12 10 9 10 10 9 8 10 13 14 10 12 10 11 10 8
18 14 17 14 13 12 11 9 8 8 7 6 5 5 6 5 5 7 7 7 7 7 7 7 8 8 10 11 9 8 10 10 12 7 7 10 9 10 8 9 13 12 12
16 16 16 14 14 11 11 10 8 7 7 5 5 3 4 7 4 4 5 6 5 5 5 6 5 6 7 10 8 8 8 8 10 5 7 8 8 8 7 6 7 8 9
17 15 13 12 15 13 13 11 9 7 6 6 5 2 4 4 5 6 4 8 5 4 4 5 5 5 4 7 10 8 7 6 6 6 7 5 7 7 6 5 4 6 4
19 16 15 13 12 13 11 10 9 7 6 7 6 4 2 2 1 2 5 8 7 5 5 6 6 5 6 7 6 7 7 6 6 6 7 3 5 5 5 5 5 5 4
22 18 17 14 15 16 14 10 4 5 3 3 2 2 0 3 2 3 7 5 5 5 4 5 5 5 6 7 7 7 7 7 5 8 8 8 6 4 4 4 4 5 5
22 20 19 17 16 14 13 10 5 5 4 5 5 5 5 6 7 8 7 6 5 7 5 6 6 7 7 8 8 8 8 9 8 9 10 11 10 5 5 4 4 3 3
26 23 20 20 19 18 15 13 9 9 8 8 9 9 9 8 7 6 6 7 7 8 7 9 8 9 9 10 10 12 10 11 11 12 11 12 12 11 7 6 6 6 6
29 27 25 22 22 18 17 16 14 14 12 10 9 10 9 9 9 9 8 8 9 9 9 9 9 11 10 11 11 11 11 12 12 12 13 14 15 14 11 9 8 8 8
32 30 27 25 22 22 19 17 14 14 13 12 10 12 11 8 8 8 8 9 11 11 11 12 13 12 14 12 12 12 13 13 14 15 16 17 18 16 12 12 12 11 10
34 31 30 26 24 22 21 19 18 16 16 14 14 14 13 12 11 10 10 12 13 13 13 14 15 14 14 14 16 16 15 15 16 18 18 18 19 19 18 14 14 14 13
31 34 31 27 24 22 22 20 19 18 18 17 16 15 14 14 14 15 15 15 13 14 16 17 16 16 16 16 18 18 18 19 19 19 20 20 20 21 21 18 16 16 16
30 32 32 29 25 23 21 22 21 20 19 17 16 16 16 16 16 18 18 16 15 16 17 18 17 16 17 18 20 22 22 24 24 23 23 23 21 23 24 23 21 19 19
29 30 30 29 27 24 21 19 20 20 19 17 18 17 16 17 18 20 20 19 17 18 18 18 19 18 19 19 22 26 28 28 26 23 22 21 22 23 23 24 24 23 21
27 30 32 31 28 26 26 25 23 24 21 21 20 20 20 20 20 22 22 21 20 21 21 20 21 20 20 17 18 19 19 22 16 16 17 18 20 22 23 24 24 25 25
32 29 32 33 31 29 26 26 24 21 21 23 21 21 20 20 21 23 24 24 23 22 22 22 22 21 22 18 8 12 4 7 3 11 11 15 19 20 21 21 21 24 26
34 33 31 33 31 29 27 25 24 23 22 20 20 23 21 20 21 22 23 25 25 25 26 24 23 23 24 20 14 8 3 3 8 4 9 12 17 19 20 21 22 24 26
36 34 33 30 30 29 28 28 28 28 27 26 23 20 20 21 23 23 24 25 26 26 28 27 24 25 24 27 21 20 25 18 2 5 3 8 14 21 22 24 25 27 27
36 35 33 32 31 30 30 31 30 29 29 25 24 23 21 19 20 21 21 22 24 26 28 28 27 27 27 28 28 24 21 22 25 15 9 10 14 17 23 27 28 28 30
36 34 33 34 33 31 31 31 31 31 28 26 24 24 23 21 21 21 22 24 25 26 27 27 27 28 29 30 31 30 30 16 9 14 8 13 16 27 24 24 26 27 29
Wind_Direction
141 132 128 120 114 110 101 87 84 77 73 66 69 70 68 64 66 61 60 58 59 56 54 49 47 47 48 50 55 58 53 47 51 48 46 43 44 44 40 39 40 44 45
144 136 132 127 118 112 103 107 83 79 76 76 76 73 70 70 68 64 62 55 60 56 55 56 52 49 50 52 58 59 53 47 50 45 55 49 44 48 46 45 46 48 52
137 138 142 135 126 121 118 104 107 89 89 85 79 79 74 71 68 67 67 61 61 59 55 54 51 49 48 52 58 60 54 50 50 45 34 54 48 47 48 50 60 53 50
145 149 142 147 134 132 126 108 110 97 93 89 83 82 76 72 69 67 67 62 62 60 56 54 50 47 45 50 58 60 53 53 57 41 61 66 62 53 50 54 53 64 50
146 156 145 148 141 135 133 121 123 108 99 94 89 87 78 77 72 68 63 62 61 58 55 51 49 46 45 51 61 67 55 59 60 59 58 50 58 63 54 56 51 51 54
155 152 147 152 149 146 141 135 134 112 119 98 97 84 80 75 70 65 61 59 55 52 50 48 47 45 44 50 64 70 58 54 51 61 54 56 58 54 58 43 45 44 47
154 157 153 156 156 152 148 142 139 131 122 122 99 90 84 75 71 62 63 56 52 46 42 46 43 45 45 49 64 64 47 46 60 72 65 54 48 53 48 53 46 45 40
165 161 153 161 161 157 155 150 148 148 137 135 123 96 83 73 72 65 55 50 46 40 33 35 40 40 41 44 59 56 40 59 45 97 62 61 44 44 49 49 45 47 55
168 165 167 167 167 166 163 159 158 157 158 153 147 131 102 74 81 67 63 38 30 30 23 24 23 28 31 43 67 77 71 68 22 81 23 59 41 41 44 41 36 40 42
171 172 172 169 174 182 168 168 170 170 173 171 172 144 83 89 68 27 18 352 349 4 6 1 5 12 30 36 42 41 39 50 24 5 3 50 34 34 33 33 34 39 37
171 183 183 180 179 184 177 173 177 178 180 184 183 104 83 350 195 228 323 338 348 6 13 19 20 24 14 353 341 16 355 15 4 332 350 353 31 18 16 14 16 16 25
175 181 187 188 189 192 187 182 184 173 159 158 141 149 65 327 203 284 315 328 351 3 3 359 10 359 349 338 338 342 327 332 326 321 331 339 341 350 352 356 352 345 352
182 187 190 190 185 182 190 190 207 203 203 210 223 251 247 237 238 246 273 306 294 329 322 319 330 317 306 325 319 322 313 316 317 309 307 315 319 322 315 307 302 298 299
192 195 195 196 196 199 209 203 220 218 216 230 228 242 247 243 215 247 258 280 288 301 294 301 299 303 298 300 302 299 291 308 294 296 296 299 303 308 288 287 280 291 286
196 196 197 202 203 202 204 208 215 216 227 237 240 243 264 247 236 239 242 263 272 280 286 289 283 287 292 294 291 292 289 291 290 291 281 286 293 297 290 273 272 274 277
199 198 199 203 208 208 208 213 214 215 224 231 239 241 263 263 256 251 254 263 270 282 280 285 288 291 293 296 301 296 290 289 283 283 279 280 284 282 273 271 266 261 264
202 202 200 204 209 209 211 216 220 223 227 231 236 248 262 267 269 265 260 263 272 279 283 280 288 291 292 296 295 297 295 290 286 278 282 278 276 276 279 268 268 266 265
200 199 201 205 209 213 213 217 221 231 234 237 242 247 253 259 263 262 261 261 267 270 276 282 291 294 293 295 297 297 293 288 283 280 278 277 274 273 273 267 265 265 267
199 198 200 205 210 213 218 221 225 236 242 246 250 252 251 254 260 264 267 268 264 264 269 277 285 290 293 295 297 298 294 289 283 277 272 271 271 273 273 274 274 264 264
199 201 202 204 209 212 218 225 229 235 242 247 251 255 255 253 255 261 266 267 265 263 265 270 279 285 287 292 297 297 297 292 288 280 275 270 265 265 270 271 273 272 269
195 197 199 200 203 205 207 214 223 230 238 244 250 255 257 257 256 257 263 265 264 264 269 272 274 278 283 290 297 306 304 303 290 286 278 267 263 265 269 271 271 276 277
196 200 199 204 204 210 218 221 224 235 244 251 257 259 260 260 259 258 262 265 267 266 265 264 265 271 276 280 272 318 327 329 9 325 278 263 266 264 272 278 273 275 277
196 199 199 203 207 214 218 220 224 236 245 247 248 251 255 260 262 263 266 266 267 266 267 268 266 264 265 275 264 241 317 279 325 326 317 268 258 264 273 280 277 277 274
199 201 206 205 208 215 217 217 219 227 233 241 247 256 261 264 266 267 268 268 269 268 266 269 270 266 263 262 266 250 246 257 284 325 312 317 289 280 267 274 278 279 275
200 203 208 211 213 215 216 221 225 230 241 251 256 260 262 264 265 267 269 271 271 270 270 269 267 264 261 260 259 254 253 259 259 241 287 287 293 278 283 286 284 279 270
201 203 207 210 213 217 220 223 227 233 239 246 251 257 265 271 273 274 276 275 277 275 273 273 272 267 264 263 261 257 252 243 240 233 246 274 273 295 295 289 286 284 282
Height
869 869 871 872 873 874 874 875 874 873 873 872 872 871 871 870 869 868 867 866 865 863 862 861 860 859 857 856 855 854 852 850 849 848 846 845 843 843 841 838 837 836 835
865 868 871 872 873 874 875 875 874 874 874 874 873 872 872 871 870 870 868 867 866 865 865 864 862 861 859 857 856 855 854 853 851 850 849 846 846 845 844 842 842 841 839
865 868 870 872 873 874 875 875 875 875 875 875 874 874 873 872 872 871 870 869 868 867 866 865 864 862 860 858 857 856 856 854 852 852 851 849 849 848 847 845 844 844 841
864 867 870 871 873 873 874 875 876 876 876 875 875 874 874 873 873 872 871 870 869 868 867 866 865 863 861 859 858 857 857 856 855 854 852 852 851 850 848 847 846 845 843
864 867 869 872 873 873 874 875 876 876 876 875 875 875 875 874 874 873 872 871 870 869 869 867 866 864 863 861 860 860 860 859 857 856 854 853 852 852 851 850 848 847 847
864 866 869 871 872 873 874 875 875 875 875 875 875 875 874 874 874 873 873 872 871 870 870 869 867 865 864 863 862 862 861 860 859 858 857 856 855 853 853 851 851 850 848
864 866 868 871 872 873 874 875 875 875 875 875 875 874 874 874 874 874 874 873 872 872 871 870 869 868 866 865 864 864 863 862 861 859 859 858 857 856 855 854 852 852 850
862 865 867 870 872 873 874 874 874 874 874 874 874 874 874 874 874 874 874 873 873 872 871 870 869 868 867 866 865 865 865 863 863 861 860 859 859 858 857 856 854 853 852
861 863 866 868 871 872 873 874 873 873 873 874 874 874 874 874 874 874 874 874 873 873 872 870 869 869 868 867 867 866 866 864 864 863 861 861 861 860 859 858 857 856 855
860 862 864 866 868 869 871 872 872 872 873 873 873 874 874 875 875 874 874 873 873 872 871 870 869 869 868 868 868 867 866 866 864 863 863 862 862 861 860 859 858 857 856
859 861 862 864 865 867 869 870 871 871 871 872 873 873 873 873 874 873 873 873 872 871 871 870 870 869 869 868 867 867 866 866 864 864 862 863 862 862 861 860 859 857 856
857 860 860 862 863 865 867 868 869 870 871 871 872 872 872 872 872 872 872 872 872 871 870 870 870 869 869 867 867 866 866 865 864 863 862 862 862 862 861 859 859 857 856
854 857 859 861 862 863 865 867 867 868 869 869 870 870 871 872 871 872 871 871 871 870 870 869 869 868 868 867 866 866 865 864 863 862 861 860 860 859 859 859 857 856 855
850 853 857 859 861 863 864 865 865 866 867 868 869 869 869 869 869 870 870 870 869 868 868 868 867 866 865 866 864 864 864 863 862 860 859 858 857 857 857 856 856 856 855
846 849 852 855 858 860 861 863 864 864 865 866 867 867 867 867 867 868 868 868 867 866 866 865 864 863 863 863 862 862 861 860 859 858 856 856 855 855 855 855 855 855 854
841 844 848 851 854 857 859 860 862 862 863 864 864 865 865 866 866 866 866 866 865 865 864 863 862 862 861 860 860 859 858 857 855 854 853 853 852 852 852 852 852 851 851
836 839 843 846 850 853 855 857 859 860 860 861 862 863 863 864 864 864 864 864 864 863 862 862 862 861 860 859 858 856 855 854 852 851 851 850 850 850 849 850 850 850 849
832 835 839 842 846 849 852 854 856 857 858 859 860 861 861 862 861 861 861 861 862 861 861 860 860 859 858 857 855 853 852 850 849 849 848 847 846 845 845 846 846 846 846
827 831 835 838 841 845 848 851 853 854 854 855 856 858 858 858 859 858 858 859 859 858 858 858 858 857 855 854 852 850 848 845 844 843 842 842 842 842 841 841 841 841 841
824 827 831 834 837 841 845 848 850 850 851 853 853 854 854 855 855 855 855 855 855 855 855 855 855 855 853 852 849 846 843 839 837 836 837 838 837 836 836 836 837 836 836
820 823 826 830 834 838 841 843 845 845 848 849 849 850 850 850 851 850 850 851 851 852 853 853 852 851 850 850 847 842 836 832 831 831 832 832 832 833 834 834 833 833 833
815 819 823 826 829 833 836 839 842 843 844 844 845 846 846 847 847 847 846 846 848 848 848 847 848 849 847 848 849 847 840 831 829 829 828 829 829 831 831 829 829 828 828
809 813 817 821 825 828 832 836 839 840 840 840 840 841 842 842 843 843 843 843 844 844 844 844 845 845 845 845 847 849 848 843 833 826 826 825 825 826 826 825 824 823 822
803 809 813 817 821 824 828 830 833 833 834 835 837 838 838 838 838 838 838 839 839 839 838 839 841 841 841 840 842 842 842 841 841 834 825 823 825 822 822 821 820 818 816
799 804 809 813 817 820 823 826 828 829 830 832 833 833 834 834 834 834 834 835 834 834 833 834 835 835 836 836 835 837 837 836 836 837 828 820 819 818 818 815 814 812 811
794 799 804 808 811 815 818 821 823 824 826 828 828 828 829 829 829 830 830 830 829 829 829 829 830 830 830 830 829 830 830 831 828 829 829 820 818 809 811 811 810 807 805